,,,PA_Meas_PMT16A,,PR_Meas_QMR101_102,,RH_Meas_QMH101,,SR_Meas_QMS101,,TA_Meas_QMH101,,GenWind,,GenWind,
date,time,status,PA,status,PR,status,RH,status,SR,status,TA,status,DirAvg,status,SpdAvg,
2011-06-01, 00:00:05,VALID,1000.84,VALID,0,VALID,91.6394,VALID,0,VALID,24.0116,VALID,106,VALID,0.281641,
2011-06-01, 00:01:05,VALID,1000.83,VALID,0,VALID,91.6012,VALID,0,VALID,24.0116,VALID,106,VALID,0.172656,
2011-06-01, 00:02:05,VALID,1000.81,VALID,0,VALID,91.5936,VALID,0,VALID,24.0329,VALID,106,VALID,0,
2011-06-01, 00:03:05,VALID,1000.8,VALID,0,VALID,91.5631,VALID,0,VALID,24.0134,VALID,106,VALID,0,
2011-06-01, 00:04:05,VALID,1000.8,VALID,0,VALID,91.5249,VALID,0,VALID,23.9921,VALID,106,VALID,0,
2011-06-01, 00:05:05,VALID,1000.79,VALID,0,VALID,91.502,VALID,0,VALID,24.0134,VALID,106,VALID,0,
2011-06-01, 00:06:05,VALID,1000.78,VALID,0,VALID,91.4563,VALID,0,VALID,23.9726,VALID,106,VALID,0,
2011-06-01, 00:07:05,VALID,1000.75,VALID,0,VALID,91.3723,VALID,0,VALID,23.9531,VALID,106,VALID,0,
2011-06-01, 00:08:05,VALID,1000.72,VALID,0,VALID,91.3494,VALID,0,VALID,23.9336,VALID,106,VALID,0,
2011-06-01, 00:09:05,VALID,1000.7,VALID,0,VALID,91.3952,VALID,0.112286,VALID,23.9336,VALID,106,VALID,0,
2011-06-01, 00:10:05,VALID,1000.65,VALID,0,VALID,91.4257,VALID,0,VALID,23.9744,VALID,100,VALID,0.431641,
2011-06-01, 00:11:05,VALID,1000.63,VALID,0,VALID,91.4257,VALID,0,VALID,23.9939,VALID,100,VALID,0.441797,
2011-06-01, 00:12:05,VALID,1000.59,VALID,0,VALID,91.3723,VALID,0,VALID,23.9726,VALID,100,VALID,0.529688,
2011-06-01, 00:13:05,VALID,1000.55,VALID,0,VALID,91.2503,VALID,0.112286,VALID,23.9939,VALID,100,VALID,0.525781,
2011-06-01, 00:14:05,VALID,1000.54,VALID,0,VALID,91.2274,VALID,0,VALID,23.9921,VALID,100,VALID,0.464063,
2011-06-01, 00:15:04,VALID,1000.51,VALID,0,VALID,91.1663,VALID,0,VALID,24.0116,VALID,100,VALID,0.506641,
2011-06-01, 00:16:04,VALID,1000.51,VALID,0,VALID,91.09,VALID,0,VALID,24.0311,VALID,100,VALID,0.377344,
2011-06-01, 00:17:04,VALID,1000.46,VALID,0,VALID,91.09,VALID,0,VALID,24.0311,VALID,100,VALID,0.434375,
2011-06-01, 00:18:04,VALID,1000.47,VALID,0,VALID,91.0824,VALID,0.112286,VALID,24.0311,VALID,100,VALID,0.4125,
2011-06-01, 00:19:04,VALID,1000.45,VALID,0,VALID,91.1282,VALID,0.112286,VALID,24.0311,VALID,100,VALID,0.276563,
2011-06-01, 00:20:04,VALID,1000.45,VALID,0,VALID,91.1206,VALID,0,VALID,24.0116,VALID,100,VALID,0.353125,
2011-06-01, 00:21:04,VALID,1000.42,VALID,0,VALID,91.1282,VALID,0,VALID,23.9921,VALID,100,VALID,0.417578,
2011-06-01, 00:22:04,VALID,1000.38,VALID,0,VALID,91.0748,VALID,0,VALID,23.9744,VALID,100,VALID,0.428906,
2011-06-01, 00:23:04,VALID,1000.35,VALID,0,VALID,91.1968,VALID,0,VALID,23.9531,VALID,100,VALID,0.40625,
2011-06-01, 00:24:04,VALID,1000.35,VALID,0,VALID,91.3342,VALID,0,VALID,23.9336,VALID,100,VALID,0.428906,
2011-06-01, 00:25:04,VALID,1000.33,VALID,0,VALID,91.4715,VALID,0,VALID,23.9531,VALID,100,VALID,0.516406,
2011-06-01, 00:26:04,VALID,1000.34,VALID,0,VALID,91.5631,VALID,0,VALID,23.9531,VALID,100,VALID,0.485938,
2011-06-01, 00:27:04,VALID,1000.28,VALID,0,VALID,91.5936,VALID,0,VALID,23.9531,VALID,100,VALID,0.414063,
2011-06-01, 00:28:04,VALID,1000.38,VALID,0,VALID,91.586,VALID,0,VALID,24.0134,VALID,100,VALID,0.336719,
2011-06-01, 00:29:04,VALID,1000.33,VALID,0,VALID,91.5478,VALID,0,VALID,23.9939,VALID,100,VALID,0.230469,
2011-06-01, 00:30:04,VALID,1000.38,VALID,0,VALID,91.4563,VALID,0,VALID,23.9726,VALID,100,VALID,0.223438,
2011-06-01, 00:31:04,VALID,1000.37,VALID,0,VALID,91.3266,VALID,0,VALID,23.9531,VALID,100,VALID,0.316016,
2011-06-01, 00:32:04,VALID,1000.39,VALID,0,VALID,91.2274,VALID,0,VALID,23.9354,VALID,100,VALID,0.356641,
2011-06-01, 00:33:04,VALID,1000.37,VALID,0,VALID,91.3418,VALID,0,VALID,23.9159,VALID,100,VALID,0.542188,
2011-06-01, 00:34:04,VALID,1000.36,VALID,0,VALID,91.2884,VALID,0,VALID,23.8768,VALID,60,VALID,0.834375,
2011-06-01, 00:35:04,VALID,1000.38,VALID,0,VALID,91.2045,VALID,0,VALID,23.8573,VALID,60,VALID,0.804297,
2011-06-01, 00:36:04,VALID,1000.33,VALID,0,VALID,91.1816,VALID,0,VALID,23.7775,VALID,60,VALID,0.725,
2011-06-01, 00:37:04,VALID,1000.34,VALID,0,VALID,91.235,VALID,0,VALID,23.7597,VALID,60,VALID,0.619141,
2011-06-01, 00:38:04,VALID,1000.31,VALID,0,VALID,91.3494,VALID,0,VALID,23.7189,VALID,60,VALID,0.5625,
2011-06-01, 00:39:04,VALID,1000.3,VALID,0,VALID,91.5173,VALID,0,VALID,23.7402,VALID,60,VALID,0.498437,
2011-06-01, 00:40:04,VALID,1000.26,VALID,0,VALID,91.6546,VALID,0,VALID,23.7402,VALID,60,VALID,0.437109,
2011-06-01, 00:41:04,VALID,1000.25,VALID,0,VALID,91.7691,VALID,0,VALID,23.6994,VALID,131,VALID,0.791016,
2011-06-01, 00:42:04,VALID,1000.28,VALID,0,VALID,91.8454,VALID,0.112286,VALID,23.6994,VALID,148,VALID,1.26484,
2011-06-01, 00:43:04,VALID,1000.28,VALID,0,VALID,91.9751,VALID,0,VALID,23.7597,VALID,139,VALID,1.11719,
2011-06-01, 00:44:04,VALID,1000.25,VALID,0,VALID,92.0285,VALID,0,VALID,23.7384,VALID,139,VALID,1.03984,
2011-06-01, 00:45:04,VALID,1000.29,VALID,0,VALID,92.059,VALID,0,VALID,23.7597,VALID,139,VALID,1.075,
2011-06-01, 00:46:04,VALID,1000.25,VALID,0,VALID,92.0743,VALID,0,VALID,23.8201,VALID,137,VALID,1.04102,
2011-06-01, 00:47:04,VALID,1000.24,VALID,0,VALID,92.0437,VALID,0,VALID,23.8183,VALID,135,VALID,1.09961,
2011-06-01, 00:48:04,VALID,1000.24,VALID,0,VALID,91.9522,VALID,0,VALID,23.8591,VALID,122,VALID,1.03164,
2011-06-01, 00:49:04,VALID,1000.24,VALID,0,VALID,91.7767,VALID,0,VALID,23.8786,VALID,118,VALID,1.08984,
2011-06-01, 00:50:04,VALID,1000.24,VALID,0,VALID,91.6317,VALID,0,VALID,23.8768,VALID,117,VALID,0.948438,
2011-06-01, 00:51:04,VALID,1000.24,VALID,0,VALID,91.4563,VALID,0,VALID,23.8982,VALID,117,VALID,0.638281,
2011-06-01, 00:52:04,VALID,1000.26,VALID,0,VALID,91.2655,VALID,0,VALID,23.8982,VALID,116,VALID,0.891797,
2011-06-01, 00:53:04,VALID,1000.24,VALID,0,VALID,91.1511,VALID,0,VALID,23.8982,VALID,115,VALID,0.616016,
2011-06-01, 00:54:04,VALID,1000.23,VALID,0,VALID,91.0443,VALID,0,VALID,23.8573,VALID,93,VALID,0.64375,
2011-06-01, 00:55:04,VALID,1000.21,VALID,0,VALID,91.0366,VALID,0,VALID,23.8591,VALID,92,VALID,0.908594,
2011-06-01, 00:56:04,VALID,1000.2,VALID,0,VALID,91.1129,VALID,0,VALID,23.8591,VALID,89,VALID,0.783594,
2011-06-01, 00:57:04,VALID,1000.18,VALID,0,VALID,91.1358,VALID,0,VALID,23.8591,VALID,88,VALID,1.02461,
2011-06-01, 00:58:04,VALID,1000.2,VALID,0,VALID,91.1892,VALID,0,VALID,23.8396,VALID,75,VALID,0.807813,
2011-06-01, 00:59:04,VALID,1000.19,VALID,0,VALID,91.1816,VALID,0,VALID,23.8396,VALID,52,VALID,0.906641,
2011-06-01, 01:00:04,VALID,1000.17,VALID,0,VALID,91.0595,VALID,0,VALID,23.8183,VALID,51,VALID,0.621484,
2011-06-01, 01:01:04,VALID,1000.18,VALID,0,VALID,90.9298,VALID,0,VALID,23.7793,VALID,49,VALID,0.774219,
2011-06-01, 01:02:04,VALID,1000.22,VALID,0,VALID,90.8611,VALID,0,VALID,23.7597,VALID,45,VALID,0.944141,
2011-06-01, 01:03:04,VALID,1000.19,VALID,0,VALID,90.8154,VALID,0.112286,VALID,23.7189,VALID,54,VALID,0.628906,
2011-06-01, 01:04:04,VALID,1000.21,VALID,0,VALID,90.6933,VALID,0,VALID,23.6994,VALID,54,VALID,0.404297,
2011-06-01, 01:05:04,VALID,1000.16,VALID,0,VALID,90.6017,VALID,0,VALID,23.7012,VALID,54,VALID,0.388672,
2011-06-01, 01:06:04,VALID,1000.15,VALID,0,VALID,90.6246,VALID,0,VALID,23.7207,VALID,54,VALID,0.232812,
2011-06-01, 01:07:04,VALID,1000.16,VALID,0,VALID,90.5788,VALID,0,VALID,23.7207,VALID,54,VALID,0.0539063,
2011-06-01, 01:08:04,VALID,1000.09,VALID,0,VALID,90.5941,VALID,0,VALID,23.7207,VALID,105,VALID,0.166016,
2011-06-01, 01:09:04,VALID,1000.09,VALID,0,VALID,90.6399,VALID,0,VALID,23.7207,VALID,106,VALID,0.760156,
2011-06-01, 01:10:04,VALID,1000.05,VALID,0,VALID,90.6323,VALID,0,VALID,23.7793,VALID,117,VALID,1.0168,
2011-06-01, 01:11:04,VALID,1000.02,VALID,0,VALID,90.5178,VALID,0,VALID,23.7988,VALID,111,VALID,0.8375,
2011-06-01, 01:12:04,VALID,999.965,VALID,0,VALID,90.3271,VALID,0,VALID,23.8378,VALID,98,VALID,1.22187,
2011-06-01, 01:13:04,VALID,999.961,VALID,0,VALID,89.9685,VALID,0,VALID,23.8963,VALID,100,VALID,0.883203,
2011-06-01, 01:14:04,VALID,999.913,VALID,0,VALID,89.6328,VALID,0,VALID,23.9336,VALID,111,VALID,0.841016,
2011-06-01, 01:15:04,VALID,999.874,VALID,0,VALID,89.2971,VALID,0,VALID,23.9744,VALID,104,VALID,0.569922,
2011-06-01, 01:16:04,VALID,999.925,VALID,0,VALID,89.1521,VALID,0,VALID,23.9939,VALID,102,VALID,0.606641,
2011-06-01, 01:17:04,VALID,999.848,VALID,0,VALID,88.9614,VALID,0,VALID,24.0116,VALID,110,VALID,0.501172,
2011-06-01, 01:18:04,VALID,999.88,VALID,0,VALID,88.8546,VALID,0,VALID,24.0329,VALID,110,VALID,0.295312,
2011-06-01, 01:19:04,VALID,999.846,VALID,0,VALID,88.8011,VALID,0,VALID,24.0134,VALID,109,VALID,0.323047,
2011-06-01, 01:20:04,VALID,999.856,VALID,0,VALID,88.7935,VALID,0,VALID,24.0134,VALID,109,VALID,0.297656,
2011-06-01, 01:21:04,VALID,999.834,VALID,0,VALID,88.8317,VALID,0,VALID,23.9939,VALID,100,VALID,0.655078,
2011-06-01, 01:22:04,VALID,999.818,VALID,0,VALID,88.8469,VALID,0,VALID,23.9531,VALID,97,VALID,0.289844,
2011-06-01, 01:23:04,VALID,999.825,VALID,0,VALID,88.824,VALID,0,VALID,23.9336,VALID,97,VALID,0.00703125,
2011-06-01, 01:24:04,VALID,999.809,VALID,0,VALID,88.9156,VALID,0,VALID,23.914,VALID,97,VALID,0,
2011-06-01, 01:25:04,VALID,999.811,VALID,0,VALID,89.2437,VALID,0,VALID,23.9159,VALID,97,VALID,0,
2011-06-01, 01:26:04,VALID,999.787,VALID,0,VALID,89.4726,VALID,0,VALID,23.8768,VALID,97,VALID,0.390234,
2011-06-01, 01:27:04,VALID,999.787,VALID,0,VALID,89.7701,VALID,0,VALID,23.8573,VALID,97,VALID,0.269531,
2011-06-01, 01:28:04,VALID,999.77,VALID,0,VALID,89.938,VALID,0.112286,VALID,23.8183,VALID,97,VALID,0,
2011-06-01, 01:29:04,VALID,999.747,VALID,0,VALID,89.9837,VALID,0,VALID,23.797,VALID,97,VALID,0.128906,
2011-06-01, 01:30:04,VALID,999.761,VALID,0,VALID,90.1134,VALID,0,VALID,23.7793,VALID,81,VALID,0.311328,
2011-06-01, 01:31:04,VALID,999.737,VALID,0,VALID,90.2355,VALID,0,VALID,23.7793,VALID,308,VALID,0.666016,
2011-06-01, 01:32:04,VALID,999.708,VALID,0,VALID,90.411,VALID,0.112286,VALID,23.7402,VALID,308,VALID,0.574609,
2011-06-01, 01:33:04,VALID,999.702,VALID,0,VALID,90.5026,VALID,0,VALID,23.7012,VALID,308,VALID,0.021875,
2011-06-01, 01:34:04,VALID,999.697,VALID,0,VALID,90.5331,VALID,0.112286,VALID,23.6604,VALID,308,VALID,0,
2011-06-01, 01:35:04,VALID,999.691,VALID,0,VALID,90.7849,VALID,0,VALID,23.6622,VALID,308,VALID,0,
2011-06-01, 01:36:04,VALID,999.69,VALID,0,VALID,90.9832,VALID,0,VALID,23.6427,VALID,308,VALID,0,
2011-06-01, 01:37:04,VALID,999.671,VALID,0,VALID,91.0748,VALID,0,VALID,23.6604,VALID,308,VALID,0,
2011-06-01, 01:38:04,VALID,999.68,VALID,0,VALID,91.0824,VALID,0,VALID,23.6427,VALID,308,VALID,0,
2011-06-01, 01:39:04,VALID,999.693,VALID,0,VALID,91.0519,VALID,0,VALID,23.6232,VALID,308,VALID,0,
2011-06-01, 01:40:04,VALID,999.663,VALID,0,VALID,91.09,VALID,0.112286,VALID,23.6232,VALID,308,VALID,0,
2011-06-01, 01:41:04,VALID,999.665,VALID,0,VALID,91.1511,VALID,0,VALID,23.6036,VALID,308,VALID,0,
2011-06-01, 01:42:04,VALID,999.647,VALID,0,VALID,91.1129,VALID,0.112286,VALID,23.5238,VALID,17,VALID,0.925,
2011-06-01, 01:43:04,VALID,999.638,VALID,0,VALID,91.1816,VALID,0,VALID,23.4848,VALID,18,VALID,0.853906,
2011-06-01, 01:44:04,VALID,999.601,VALID,0,VALID,91.296,VALID,0,VALID,23.4458,VALID,18,VALID,1.3668,
2011-06-01, 01:45:04,VALID,999.578,VALID,0,VALID,91.441,VALID,0,VALID,23.428,VALID,12,VALID,1.56445,
2011-06-01, 01:46:04,VALID,999.54,VALID,0,VALID,91.4563,VALID,0,VALID,23.4085,VALID,10,VALID,1.29805,
2011-06-01, 01:47:04,VALID,999.529,VALID,0,VALID,91.441,VALID,0,VALID,23.389,VALID,2,VALID,1.41953,
2011-06-01, 01:48:04,VALID,999.528,VALID,0,VALID,91.3952,VALID,0,VALID,23.389,VALID,12,VALID,1.32734,
2011-06-01, 01:49:04,VALID,999.463,VALID,0,VALID,91.4028,VALID,0,VALID,23.3677,VALID,10,VALID,1.06016,
2011-06-01, 01:50:04,VALID,999.457,VALID,0,VALID,91.3647,VALID,0,VALID,23.389,VALID,12,VALID,1.17227,
2011-06-01, 01:51:04,VALID,999.446,VALID,0,VALID,91.3113,VALID,0,VALID,23.3695,VALID,20,VALID,1.24453,
2011-06-01, 01:52:04,VALID,999.407,VALID,0,VALID,91.296,VALID,0,VALID,23.3677,VALID,17,VALID,1.68438,
2011-06-01, 01:53:04,VALID,999.393,VALID,0,VALID,91.3189,VALID,0,VALID,23.3872,VALID,17,VALID,1.64297,
2011-06-01, 01:54:04,VALID,999.389,VALID,0,VALID,91.3342,VALID,0,VALID,23.4085,VALID,21,VALID,1.6793,
2011-06-01, 01:55:04,VALID,999.411,VALID,0,VALID,91.2884,VALID,0,VALID,23.389,VALID,22,VALID,1.4957,
2011-06-01, 01:56:04,VALID,999.438,VALID,0,VALID,91.2731,VALID,0,VALID,23.4085,VALID,21,VALID,1.58008,
2011-06-01, 01:57:04,VALID,999.432,VALID,0,VALID,91.2808,VALID,0,VALID,23.389,VALID,31,VALID,1.49922,
2011-06-01, 01:58:04,VALID,999.434,VALID,0,VALID,91.3571,VALID,0,VALID,23.3872,VALID,35,VALID,1.24883,
2011-06-01, 01:59:04,VALID,999.456,VALID,0,VALID,91.4105,VALID,0,VALID,23.389,VALID,36,VALID,0.956641,
2011-06-01, 02:00:04,VALID,999.443,VALID,0,VALID,91.4257,VALID,0,VALID,23.389,VALID,36,VALID,0.985547,
2011-06-01, 02:01:04,VALID,999.461,VALID,0,VALID,91.4334,VALID,0,VALID,23.3482,VALID,35,VALID,0.707031,
2011-06-01, 02:02:04,VALID,999.465,VALID,0,VALID,91.4791,VALID,0,VALID,23.3695,VALID,34,VALID,0.614453,
2011-06-01, 02:03:04,VALID,999.45,VALID,0,VALID,91.502,VALID,0,VALID,23.35,VALID,34,VALID,0.0648438,
2011-06-01, 02:04:04,VALID,999.457,VALID,0,VALID,91.5249,VALID,0,VALID,23.3305,VALID,34,VALID,0.115234,
2011-06-01, 02:05:04,VALID,999.467,VALID,0,VALID,91.586,VALID,0,VALID,23.3092,VALID,34,VALID,0,
2011-06-01, 02:06:04,VALID,999.465,VALID,0,VALID,91.6317,VALID,0,VALID,23.311,VALID,34,VALID,0,
2011-06-01, 02:07:04,VALID,999.466,VALID,0,VALID,91.6851,VALID,0,VALID,23.2897,VALID,34,VALID,0,
2011-06-01, 02:08:04,VALID,999.433,VALID,0,VALID,91.7691,VALID,0,VALID,23.311,VALID,81,VALID,0.691406,
2011-06-01, 02:09:04,VALID,999.443,VALID,0,VALID,91.8148,VALID,0,VALID,23.311,VALID,83,VALID,0.638281,
2011-06-01, 02:10:04,VALID,999.443,VALID,0,VALID,91.8911,VALID,0,VALID,23.311,VALID,83,VALID,0.717578,
2011-06-01, 02:11:04,VALID,999.422,VALID,0,VALID,91.9369,VALID,0,VALID,23.3092,VALID,86,VALID,0.655469,
2011-06-01, 02:12:04,VALID,999.425,VALID,0,VALID,91.9217,VALID,0,VALID,23.311,VALID,105,VALID,0.729297,
2011-06-01, 02:13:04,VALID,999.403,VALID,0,VALID,91.9674,VALID,0,VALID,23.35,VALID,105,VALID,0.660937,
2011-06-01, 02:14:04,VALID,999.418,VALID,0,VALID,91.9903,VALID,0,VALID,23.3695,VALID,105,VALID,0.65625,
2011-06-01, 02:15:04,VALID,999.392,VALID,0,VALID,91.998,VALID,0,VALID,23.389,VALID,120,VALID,0.852344,
2011-06-01, 02:16:04,VALID,999.382,VALID,0,VALID,91.9445,VALID,0,VALID,23.4671,VALID,120,VALID,1.07031,
2011-06-01, 02:17:04,VALID,999.367,VALID,0,VALID,91.7767,VALID,0,VALID,23.5256,VALID,120,VALID,0.958984,
2011-06-01, 02:18:04,VALID,999.382,VALID,0,VALID,91.5097,VALID,0,VALID,23.5646,VALID,120,VALID,0.982813,
2011-06-01, 02:19:04,VALID,999.401,VALID,0,VALID,91.1129,VALID,0,VALID,23.5841,VALID,120,VALID,0.825,
2011-06-01, 02:20:04,VALID,999.408,VALID,0,VALID,90.7772,VALID,0,VALID,23.6036,VALID,120,VALID,0.719531,
2011-06-01, 02:21:04,VALID,999.416,VALID,0,VALID,90.5483,VALID,0,VALID,23.6232,VALID,120,VALID,0.776953,
2011-06-01, 02:22:04,VALID,999.406,VALID,0,VALID,90.3957,VALID,0,VALID,23.6019,VALID,116,VALID,0.803516,
2011-06-01, 02:23:04,VALID,999.425,VALID,0,VALID,90.3728,VALID,0,VALID,23.5823,VALID,114,VALID,0.709766,
2011-06-01, 02:24:04,VALID,999.417,VALID,0,VALID,90.4339,VALID,0,VALID,23.6427,VALID,114,VALID,0.538281,
2011-06-01, 02:25:04,VALID,999.434,VALID,0,VALID,90.4415,VALID,0,VALID,23.6019,VALID,114,VALID,0.271484,
2011-06-01, 02:26:04,VALID,999.394,VALID,0,VALID,90.3957,VALID,0,VALID,23.5841,VALID,114,VALID,0.130078,
2011-06-01, 02:27:04,VALID,999.384,VALID,0,VALID,90.411,VALID,0,VALID,23.5646,VALID,114,VALID,0,
2011-06-01, 02:28:04,VALID,999.345,VALID,0,VALID,90.5254,VALID,0,VALID,23.5646,VALID,114,VALID,0,
2011-06-01, 02:29:04,VALID,999.316,VALID,0,VALID,90.6399,VALID,0.112286,VALID,23.5646,VALID,114,VALID,0,
2011-06-01, 02:30:04,VALID,999.305,VALID,0,VALID,90.7238,VALID,0,VALID,23.5646,VALID,114,VALID,0.326562,
2011-06-01, 02:31:04,VALID,999.294,VALID,0,VALID,90.7467,VALID,0,VALID,23.5646,VALID,114,VALID,0.316797,
2011-06-01, 02:32:04,VALID,999.274,VALID,0,VALID,90.7314,VALID,0,VALID,23.5256,VALID,327,VALID,0.467187,
2011-06-01, 02:33:04,VALID,999.274,VALID,0,VALID,90.7391,VALID,0,VALID,23.5061,VALID,327,VALID,0.202734,
2011-06-01, 02:34:04,VALID,999.281,VALID,0,VALID,90.7467,VALID,0,VALID,23.4671,VALID,327,VALID,0.209766,
2011-06-01, 02:35:04,VALID,999.291,VALID,0,VALID,90.7849,VALID,0,VALID,23.4475,VALID,327,VALID,0,
2011-06-01, 02:36:04,VALID,999.261,VALID,0,VALID,90.884,VALID,0,VALID,23.4067,VALID,327,VALID,0,
2011-06-01, 02:37:04,VALID,999.291,VALID,0,VALID,90.9146,VALID,0,VALID,23.3677,VALID,327,VALID,0,
2011-06-01, 02:38:04,VALID,999.267,VALID,0,VALID,91.0061,VALID,0,VALID,23.3695,VALID,327,VALID,0,
2011-06-01, 02:39:04,VALID,999.237,VALID,0,VALID,90.9909,VALID,0.112286,VALID,23.3305,VALID,327,VALID,0,
2011-06-01, 02:40:04,VALID,999.243,VALID,0,VALID,91.0671,VALID,0,VALID,23.311,VALID,327,VALID,0.412891,
2011-06-01, 02:41:04,VALID,999.238,VALID,0,VALID,91.3418,VALID,0,VALID,23.2915,VALID,327,VALID,0.54375,
2011-06-01, 02:42:04,VALID,999.23,VALID,0,VALID,91.5097,VALID,0,VALID,23.311,VALID,24,VALID,0.571094,
2011-06-01, 02:43:04,VALID,999.212,VALID,0,VALID,91.647,VALID,0,VALID,23.3092,VALID,72,VALID,0.746484,
2011-06-01, 02:44:04,VALID,999.198,VALID,0,VALID,91.6241,VALID,0.112286,VALID,23.3287,VALID,72,VALID,0.714844,
2011-06-01, 02:45:04,VALID,999.212,VALID,0,VALID,91.5631,VALID,0,VALID,23.2915,VALID,72,VALID,0.641797,
2011-06-01, 02:46:04,VALID,999.181,VALID,0,VALID,91.502,VALID,0,VALID,23.2719,VALID,72,VALID,0.490234,
2011-06-01, 02:47:04,VALID,999.17,VALID,0,VALID,91.4868,VALID,0,VALID,23.2932,VALID,72,VALID,0.517578,
2011-06-01, 02:48:04,VALID,999.19,VALID,0,VALID,91.5631,VALID,0,VALID,23.2524,VALID,72,VALID,0.456641,
2011-06-01, 02:49:04,VALID,999.134,VALID,0,VALID,91.6394,VALID,0,VALID,23.2329,VALID,72,VALID,0.365625,
2011-06-01, 02:50:04,VALID,999.126,VALID,0,VALID,91.7004,VALID,0,VALID,23.2329,VALID,72,VALID,0.153906,
2011-06-01, 02:51:04,VALID,999.102,VALID,0,VALID,91.7614,VALID,0,VALID,23.2347,VALID,72,VALID,0,
2011-06-01, 02:52:04,VALID,999.111,VALID,0,VALID,91.792,VALID,0,VALID,23.1744,VALID,72,VALID,0,
2011-06-01, 02:53:04,VALID,999.117,VALID,0,VALID,91.7843,VALID,0,VALID,23.1549,VALID,72,VALID,0,
2011-06-01, 02:54:04,VALID,999.128,VALID,0,VALID,91.8072,VALID,0,VALID,23.1566,VALID,72,VALID,0,
2011-06-01, 02:55:04,VALID,999.148,VALID,0,VALID,91.8606,VALID,0,VALID,23.1159,VALID,72,VALID,0,
2011-06-01, 02:56:04,VALID,999.141,VALID,0,VALID,91.9217,VALID,0,VALID,23.1159,VALID,72,VALID,0,
2011-06-01, 02:57:04,VALID,999.116,VALID,0,VALID,92.0209,VALID,0,VALID,23.1354,VALID,72,VALID,0,
2011-06-01, 02:58:04,VALID,999.142,VALID,0,VALID,92.1124,VALID,0,VALID,23.1566,VALID,72,VALID,0,
2011-06-01, 02:59:04,VALID,999.125,VALID,0,VALID,92.1963,VALID,0,VALID,23.1566,VALID,72,VALID,0,
2011-06-01, 03:00:04,VALID,999.128,VALID,0,VALID,92.265,VALID,0,VALID,23.1744,VALID,72,VALID,0,
2011-06-01, 03:01:04,VALID,999.113,VALID,0,VALID,92.3337,VALID,0,VALID,23.1744,VALID,72,VALID,0,
2011-06-01, 03:02:04,VALID,999.117,VALID,0,VALID,92.3718,VALID,0,VALID,23.1336,VALID,72,VALID,0,
2011-06-01, 03:03:04,VALID,999.11,VALID,0,VALID,92.3947,VALID,0,VALID,23.1336,VALID,72,VALID,0,
2011-06-01, 03:04:04,VALID,999.108,VALID,0,VALID,92.4252,VALID,0,VALID,23.1159,VALID,72,VALID,0,
2011-06-01, 03:05:04,VALID,999.123,VALID,0,VALID,92.4405,VALID,0.112286,VALID,23.1141,VALID,72,VALID,0,
2011-06-01, 03:06:04,VALID,999.132,VALID,0,VALID,92.5015,VALID,0,VALID,23.1354,VALID,72,VALID,0,
2011-06-01, 03:07:04,VALID,999.165,VALID,0,VALID,92.5168,VALID,0,VALID,23.1336,VALID,72,VALID,0.220703,
2011-06-01, 03:08:04,VALID,999.181,VALID,0,VALID,92.5626,VALID,0.112286,VALID,23.1531,VALID,72,VALID,0.362109,
2011-06-01, 03:09:04,VALID,999.192,VALID,0,VALID,92.5549,VALID,0,VALID,23.1566,VALID,32,VALID,0.540234,
2011-06-01, 03:10:04,VALID,999.247,VALID,0,VALID,92.5702,VALID,0,VALID,23.1371,VALID,2,VALID,0.440625,
2011-06-01, 03:11:04,VALID,999.224,VALID,0,VALID,92.5778,VALID,0,VALID,23.0964,VALID,2,VALID,0.382422,
2011-06-01, 03:12:04,VALID,999.238,VALID,0,VALID,92.5854,VALID,0,VALID,23.0964,VALID,2,VALID,0.211328,
2011-06-01, 03:13:04,VALID,999.215,VALID,0,VALID,92.5931,VALID,0,VALID,23.0964,VALID,2,VALID,0,
2011-06-01, 03:14:04,VALID,999.25,VALID,0,VALID,92.616,VALID,0,VALID,23.1176,VALID,2,VALID,0,
2011-06-01, 03:15:04,VALID,999.218,VALID,0,VALID,92.6465,VALID,0,VALID,23.0964,VALID,2,VALID,0.21875,
2011-06-01, 03:16:04,VALID,999.245,VALID,0,VALID,92.6388,VALID,0,VALID,23.0769,VALID,140,VALID,0.810938,
2011-06-01, 03:17:04,VALID,999.22,VALID,0,VALID,92.6236,VALID,0,VALID,23.1159,VALID,151,VALID,1.33984,
2011-06-01, 03:18:04,VALID,999.21,VALID,0,VALID,92.5702,VALID,0,VALID,23.2134,VALID,159,VALID,1.4875,
2011-06-01, 03:19:04,VALID,999.214,VALID,0,VALID,92.4252,VALID,0,VALID,23.311,VALID,164,VALID,1.43164,
2011-06-01, 03:20:04,VALID,999.195,VALID,0,VALID,92.204,VALID,0,VALID,23.389,VALID,164,VALID,0.996094,
2011-06-01, 03:21:04,VALID,999.215,VALID,0,VALID,91.9293,VALID,0,VALID,23.428,VALID,164,VALID,0.878125,
2011-06-01, 03:22:04,VALID,999.213,VALID,0,VALID,91.5478,VALID,0,VALID,23.4671,VALID,165,VALID,0.830859,
2011-06-01, 03:23:04,VALID,999.201,VALID,0,VALID,91.2197,VALID,0,VALID,23.4671,VALID,165,VALID,0.819531,
2011-06-01, 03:24:04,VALID,999.182,VALID,0,VALID,90.9985,VALID,0,VALID,23.5274,VALID,165,VALID,0.804297,
2011-06-01, 03:25:04,VALID,999.178,VALID,0,VALID,90.7162,VALID,0,VALID,23.5061,VALID,165,VALID,0.805469,
2011-06-01, 03:26:04,VALID,999.184,VALID,0,VALID,90.4797,VALID,0,VALID,23.4866,VALID,165,VALID,1.06094,
2011-06-01, 03:27:04,VALID,999.159,VALID,0,VALID,90.3728,VALID,0,VALID,23.5061,VALID,176,VALID,1.59258,
2011-06-01, 03:28:04,VALID,999.166,VALID,0,VALID,90.4034,VALID,0,VALID,23.5469,VALID,177,VALID,1.53828,
2011-06-01, 03:29:04,VALID,999.162,VALID,0,VALID,90.2813,VALID,0,VALID,23.5859,VALID,174,VALID,1.19336,
2011-06-01, 03:30:04,VALID,999.15,VALID,0,VALID,90.0982,VALID,0,VALID,23.5859,VALID,174,VALID,1.06016,
2011-06-01, 03:31:04,VALID,999.151,VALID,0,VALID,89.9303,VALID,0,VALID,23.6036,VALID,174,VALID,0.903125,
2011-06-01, 03:32:04,VALID,999.135,VALID,0,VALID,89.7625,VALID,0,VALID,23.625,VALID,174,VALID,0.792188,
2011-06-01, 03:33:04,VALID,999.126,VALID,0,VALID,89.6099,VALID,0,VALID,23.6445,VALID,181,VALID,0.610547,
2011-06-01, 03:34:04,VALID,999.13,VALID,0,VALID,89.3963,VALID,0,VALID,23.6427,VALID,177,VALID,0.874609,
2011-06-01, 03:35:04,VALID,999.107,VALID,0,VALID,89.1521,VALID,0,VALID,23.6835,VALID,160,VALID,0.823828,
2011-06-01, 03:36:04,VALID,999.155,VALID,0,VALID,88.9614,VALID,0,VALID,23.7012,VALID,160,VALID,0.8625,
2011-06-01, 03:37:04,VALID,999.139,VALID,0,VALID,88.763,VALID,0,VALID,23.7207,VALID,160,VALID,1.06367,
2011-06-01, 03:38:04,VALID,999.141,VALID,0,VALID,88.5723,VALID,0,VALID,23.7597,VALID,160,VALID,0.938672,
2011-06-01, 03:39:04,VALID,999.167,VALID,0,VALID,88.3663,VALID,0,VALID,23.7811,VALID,153,VALID,0.930469,
2011-06-01, 03:40:04,VALID,999.155,VALID,0,VALID,88.29,VALID,0,VALID,23.7597,VALID,153,VALID,0.86875,
2011-06-01, 03:41:04,VALID,999.171,VALID,0,VALID,88.3968,VALID,0,VALID,23.7207,VALID,136,VALID,1.11484,
2011-06-01, 03:42:04,VALID,999.169,VALID,0,VALID,88.7477,VALID,0,VALID,23.7012,VALID,136,VALID,0.787109,
2011-06-01, 03:43:04,VALID,999.191,VALID,0,VALID,88.9614,VALID,0,VALID,23.6835,VALID,136,VALID,0.689062,
2011-06-01, 03:44:04,VALID,999.196,VALID,0,VALID,89.0834,VALID,0,VALID,23.6232,VALID,136,VALID,0.676172,
2011-06-01, 03:45:04,VALID,999.223,VALID,0,VALID,89.1903,VALID,0,VALID,23.6036,VALID,136,VALID,0.457031,
2011-06-01, 03:46:04,VALID,999.235,VALID,0,VALID,89.32,VALID,0,VALID,23.5646,VALID,136,VALID,0.310937,
2011-06-01, 03:47:04,VALID,999.224,VALID,0,VALID,89.4497,VALID,0,VALID,23.5256,VALID,136,VALID,0.340234,
2011-06-01, 03:48:04,VALID,999.249,VALID,0,VALID,89.648,VALID,0,VALID,23.5061,VALID,136,VALID,0,